Wind_Speed
70 64 60 63 60 60 56 58 56 53 50 55 58 50 47 39 37 41 38 43 39 36 33 33 34 29 27 26 25 25 26 26 28 30 30 31 34 35 36 36 38 38 37 38
73 71 72 71 72 71 67 62 61 58 56 59 55 49 47 41 39 36 40 44 47 45 37 36 37 37 33 27 26 27 29 29 29 31 30 32 33 33 35 36 35 36 37 36
75 73 73 71 70 68 64 66 68 65 59 60 58 51 48 41 38 36 42 45 48 46 41 38 38 39 39 35 29 29 30 30 29 29 30 32 34 34 35 37 36 38 38 40
80 80 81 77 77 74 69 70 69 67 65 61 59 47 45 44 40 37 44 46 50 45 45 44 40 42 42 40 36 34 32 34 34 32 34 33 33 34 35 38 41 39 38 41
76 78 77 78 77 76 73 75 74 73 67 62 54 47 47 46 41 45 50 49 47 48 49 47 47 43 45 45 40 39 36 36 39 42 39 38 38 39 40 41 40 41 41 42
79 77 74 78 76 77 74 75 76 76 71 62 59 54 39 53 47 49 56 52 50 50 50 50 49 50 47 49 48 45 43 41 39 41 44 43 43 44 43 46 47 45 45 46
78 77 79 80 78 78 77 79 81 79 74 62 63 58 43 50 56 53 56 60 57 55 53 53 52 53 53 54 53 53 50 47 45 44 42 45 47 47 47 47 50 48 49 49
79 77 76 78 76 79 79 78 76 77 76 69 67 54 49 53 54 57 59 64 64 61 62 60 55 57 58 58 58 58 54 54 50 48 49 49 48 50 53 53 55 54 55 54
84 83 82 81 80 81 78 75 78 82 77 74 66 58 58 59 61 58 59 64 69 69 68 68 65 62 63 64 63 63 64 61 56 54 59 60 60 60 59 61 63 64 64 61
89 91 85 78 80 82 80 81 82 83 80 79 68 69 64 64 67 65 65 66 70 73 73 73 72 71 70 71 71 69 68 68 70 70 70 69 69 68 67 67 68 69 68 67
95 96 89 85 82 82 85 83 84 88 87 84 77 71 70 70 70 70 71 71 73 74 78 78 77 76 76 76 77 77 74 73 73 74 75 76 77 76 76 75 72 70 67 68
99 100 95 92 92 91 91 90 92 93 88 93 91 73 74 77 79 79 78 75 76 79 79 80 81 82 82 82 82 81 80 80 79 81 81 83 82 82 80 77 74 73 69 71
105 105 102 100 99 98 98 98 100 100 101 101 102 84 75 84 87 86 83 78 79 84 85 87 89 90 91 90 89 86 86 86 86 87 86 86 86 84 83 81 78 74 72 73
113 113 111 105 106 104 104 104 106 107 106 98 104 90 81 85 88 87 87 88 88 89 91 94 96 96 96 94 92 90 89 90 89 90 88 88 87 86 85 83 78 77 76 78
112 110 114 115 115 111 111 113 114 114 109 114 102 108 90 91 96 100 99 96 96 96 98 98 99 102 102 101 97 96 93 94 95 90 92 92 91 89 89 87 86 84 82 81
118 118 117 119 115 115 119 120 113 111 110 115 110 111 97 99 101 101 98 101 100 99 99 100 105 108 109 108 104 101 99 97 97 96 96 94 91 88 87 88 88 87 90 88
102 100 103 102 113 121 124 112 116 113 113 118 122 112 111 109 105 104 106 107 103 102 102 103 101 104 110 110 109 105 103 101 100 99 98 101 96 96 99 99 99 96 94 92
99 98 100 97 100 102 94 97 102 108 107 112 117 114 113 115 107 106 108 107 107 110 111 108 111 112 112 114 116 115 111 109 110 109 108 105 104 101 97 93 94 96 98 98
108 110 108 103 100 100 96 84 92 99 95 95 99 95 86 85 90 87 98 103 99 97 98 96 91 87 87 90 94 97 102 103 100 98 96 95 94 91 90 92 96 97 98 100
115 114 120 113 111 106 86 89 97 105 111 99 102 101 99 91 93 87 91 93 94 96 94 93 96 92 90 88 86 90 90 90 88 89 88 90 92 91 92 93 93 95 97 98
125 126 125 121 123 116 95 97 111 117 107 106 107 111 110 104 102 99 97 95 96 94 97 100 100 98 98 98 95 91 93 96 95 99 101 102 102 101 99 102 104 106 105 105
130 133 132 130 131 130 117 116 121 125 121 124 121 118 116 118 115 113 110 108 105 103 102 104 105 107 103 108 106 107 103 103 104 104 103 105 106 108 108 104 104 107 109 109
139 138 136 138 138 136 128 128 128 129 134 137 136 135 131 124 124 125 120 115 115 114 112 110 110 110 112 112 113 114 115 113 114 110 106 106 106 110 110 108 107 106 106 107
137 137 142 142 137 139 139 133 133 135 131 127 126 127 134 135 130 126 127 125 122 123 122 121 120 117 117 117 119 121 121 120 118 116 115 114 114 112 111 112 111 112 112 110
123 129 131 137 128 132 134 135 130 127 126 123 124 128 127 127 123 120 116 114 116 118 119 118 115 116 113 113 114 114 117 116 119 118 118 117 116 113 113 114 114 112 112 112
109 115 121 118 117 123 120 120 121 120 120 122 118 118 118 118 121 119 117 111 110 114 116 117 113 112 112 110 111 111 112 114 114 114 115 112 112 112 112 110 107 106 107 105
Wind_Direction
244 244 245 246 252 256 251 251 252 261 261 274 278 276 276 278 286 298 302 309 309 307 297 294 291 289 288 285 284 280 280 279 279 279 279 279 279 281 282 283 285 287 288 288
239 240 245 251 254 255 255 255 255 259 263 273 268 270 271 273 281 288 296 301 306 306 298 290 289 291 288 285 285 282 281 280 280 280 282 283 283 285 286 287 290 290 288 287
238 240 243 245 249 250 248 252 251 257 262 261 266 262 267 269 268 280 288 297 302 302 295 285 284 284 284 284 283 284 283 281 279 279 282 285 288 288 289 290 287 285 286 286
238 242 244 244 245 245 246 247 252 256 260 258 260 257 265 264 269 275 283 294 297 291 286 285 282 279 278 279 281 282 286 287 285 284 289 288 286 285 285 285 286 286 288 287
236 240 241 243 244 248 245 248 249 252 252 252 254 254 261 262 265 272 282 289 287 285 285 282 281 276 278 279 277 279 281 285 288 289 289 288 287 286 287 285 285 288 287 286
240 240 241 244 245 246 245 248 249 250 250 250 252 252 251 268 267 268 276 285 281 280 279 279 278 281 278 278 279 278 279 279 280 285 288 286 287 287 286 286 284 285 285 285
238 240 241 243 246 248 249 248 249 249 251 251 251 254 250 260 265 269 278 281 281 276 274 274 275 277 278 277 277 277 276 275 279 276 282 285 285 288 289 285 283 284 286 287
243 243 243 243 245 247 247 249 252 254 253 251 250 254 252 252 255 264 275 281 279 277 278 277 275 275 276 276 277 279 282 280 282 285 279 288 285 287 289 287 285 286 286 288
240 241 242 244 246 247 249 252 249 250 251 253 256 255 254 253 254 258 265 269 273 277 277 277 279 279 279 280 281 282 284 287 284 277 282 289 291 288 285 285 286 285 285 287
241 240 238 242 248 252 253 255 256 257 255 256 255 254 255 254 255 258 264 266 267 270 272 275 276 276 276 277 279 279 281 284 286 288 290 289 288 287 286 287 288 289 287 288
241 242 242 242 244 248 248 248 253 257 257 257 255 253 255 256 256 259 260 261 259 262 267 270 271 273 274 276 277 278 279 280 283 283 284 286 287 287 287 288 289 289 287 284
243 244 242 243 242 245 248 249 248 246 250 253 252 245 255 252 253 254 255 256 259 260 261 264 268 271 273 273 274 276 279 280 281 282 282 283 285 286 286 286 286 286 283 280
245 246 246 244 244 245 247 249 251 252 250 253 255 254 256 257 257 257 258 258 258 261 263 263 264 265 266 269 272 275 276 277 278 279 280 282 284 284 285 286 286 285 283 282
247 248 249 249 248 248 250 251 253 255 256 258 258 257 258 260 261 262 261 261 261 260 262 264 267 269 269 271 273 273 275 275 276 278 280 280 280 281 283 285 283 283 282 282
250 253 254 252 250 251 250 250 253 255 256 258 259 261 259 264 264 263 263 265 264 264 265 267 269 270 271 272 273 272 273 276 276 277 278 281 282 282 282 281 281 282 282 282
254 254 255 254 255 255 253 250 251 255 257 259 258 259 264 261 262 265 267 266 266 267 267 267 269 272 274 274 273 272 272 274 275 275 277 279 281 280 280 282 282 282 282 282
251 252 253 254 255 255 255 257 257 257 258 260 260 260 261 263 264 264 265 266 268 269 269 270 271 273 275 276 277 277 276 276 277 277 276 279 278 280 280 280 281 280 280 280
252 253 256 256 255 257 260 258 262 265 265 265 264 263 261 262 264 265 267 268 268 269 269 270 270 272 272 272 271 274 275 277 278 278 278 279 279 281 278 277 278 279 277 277
256 258 259 257 257 256 257 260 261 261 260 261 263 264 262 262 263 263 265 265 265 265 266 269 270 271 270 270 272 274 275 275 275 275 275 276 276 274 273 274 276 275 275 276
260 262 264 262 264 261 258 265 267 264 259 262 266 264 263 262 263 267 264 263 263 265 264 263 265 269 270 269 275 274 274 277 276 273 272 274 274 273 273 274 274 275 276 276
258 261 264 266 267 265 263 269 271 270 267 264 264 268 272 271 268 270 270 262 260 264 266 265 265 268 268 265 269 270 273 270 273 272 271 271 272 269 272 273 273 273 273 273
254 256 260 263 265 268 267 266 271 272 272 273 271 272 269 273 275 275 275 276 276 274 270 265 265 266 268 262 264 268 270 272 271 271 269 269 271 267 268 273 273 271 270 270
257 257 258 260 263 265 266 264 265 267 268 269 271 272 272 271 274 275 273 274 276 275 274 273 270 270 272 272 273 275 275 276 273 275 273 273 273 272 273 275 276 273 273 272
257 258 260 262 265 267 265 265 266 268 266 265 265 266 268 269 269 269 270 271 272 273 272 273 274 272 273 273 274 275 276 276 275 275 276 276 275 275 275 275 275 274 274 274
253 255 258 259 262 262 263 264 264 264 264 264 264 266 267 268 268 268 267 268 269 270 271 271 271 271 270 270 271 271 272 272 271 271 271 272 273 273 273 274 273 275 276 276
257 257 258 259 260 261 260 261 262 263 264 265 265 265 265 266 268 268 269 269 269 271 271 271 271 271 272 271 271 271 271 272 271 270 270 271 273 273 273 273 275 276 277 278
Height
10720 10725 10728 10726 10734 10738 10746 10745 10750 10753 10757 10765 10770 10772 10775 10777 10776 10779 10779 10780 10782 10784 10784 10782 10780 10779 10777 10775 10775 10773 10771 10771 10769 10767 10766 10764 10762 10761 10759 10759 10756 10755 10754 10753
10706 10714 10712 10720 10725 10728 10734 10738 10738 10741 10749 10757 10761 10764 10766 10771 10770 10769 10771 10771 10774 10776 10779 10776 10773 10771 10771 10770 10769 10768 10765 10763 10762 10760 10759 10757 10756 10754 10752 10751 10750 10748 10745 10743
10692 10699 10702 10708 10712 10716 10721 10724 10722 10730 10743 10744 10754 10756 10758 10761 10761 10760 10759 10763 10763 10765 10768 10770 10768 10765 10762 10762 10762 10761 10760 10758 10756 10755 10753 10751 10749 10747 10745 10742 10741 10739 10737 10735
10679 10688 10689 10692 10697 10701 10706 10711 10713 10720 10729 10736 10743 10751 10749 10750 10751 10753 10748 10752 10753 10756 10756 10758 10760 10757 10755 10754 10754 10752 10752 10750 10748 10748 10746 10744 10742 10739 10738 10734 10730 10730 10729 10726
10668 10671 10676 10680 10685 10691 10699 10699 10701 10706 10715 10726 10735 10742 10737 10740 10744 10740 10737 10742 10743 10743 10745 10746 10746 10749 10746 10744 10746 10745 10744 10742 10740 10738 10737 10735 10732 10731 10728 10725 10722 10719 10717 10715
10655 10661 10666 10669 10672 10677 10686 10686 10689 10692 10701 10720 10722 10727 10742 10723 10733 10730 10723 10729 10733 10733 10733 10733 10733 10733 10737 10735 10734 10735 10735 10734 10733 10730 10727 10726 10723 10719 10718 10714 10710 10708 10706 10703
10634 10646 10649 10655 10658 10665 10671 10672 10672 10677 10689 10712 10710 10717 10737 10725 10714 10716 10711 10710 10718 10718 10721 10721 10723 10722 10721 10721 10722 10723 10724 10723 10722 10720 10717 10715 10713 10709 10706 10704 10697 10697 10693 10691
10625 10633 10642 10642 10644 10643 10648 10655 10666 10669 10674 10691 10699 10717 10723 10718 10712 10703 10702 10697 10696 10701 10701 10705 10711 10709 10707 10707 10707 10706 10707 10708 10706 10705 10706 10704 10702 10699 10695 10692 10686 10684 10681 10680
10599 10610 10622 10626 10627 10630 10640 10644 10648 10646 10662 10673 10691 10705 10706 10704 10701 10701 10696 10691 10685 10684 10686 10686 10689 10692 10691 10690 10692 10691 10691 10691 10690 10691 10692 10690 10687 10684 10681 10678 10675 10672 10668 10667
10586 10589 10602 10612 10614 10619 10627 10629 10632 10634 10646 10651 10679 10682 10690 10690 10687 10687 10688 10686 10679 10673 10672 10672 10673 10673 10676 10675 10676 10679 10679 10678 10676 10675 10674 10672 10669 10667 10665 10662 10660 10659 10657 10652
10568 10572 10591 10598 10604 10600 10599 10609 10615 10614 10619 10630 10651 10668 10674 10671 10671 10671 10671 10669 10668 10665 10657 10655 10658 10659 10659 10660 10661 10661 10664 10665 10664 10662 10659 10656 10652 10650 10647 10645 10644 10643 10642 10638
10548 10552 10571 10579 10584 10583 10585 10593 10588 10591 10603 10600 10611 10654 10651 10650 10646 10646 10645 10650 10651 10648 10649 10647 10644 10641 10642 10642 10643 10646 10648 10648 10649 10646 10644 10639 10635 10633 10629 10628 10627 10627 10623 10619
10529 10533 10545 10556 10567 10573 10573 10572 10567 10570 10573 10589 10595 10638 10632 10630 10625 10624 10628 10634 10634 10633 10631 10629 10627 10626 10624 10626 10630 10633 10633 10632 10629 10627 10626 10622 10619 10615 10612 10610 10608 10606 10604 10601
10508 10513 10524 10541 10541 10551 10555 10552 10551 10549 10560 10586 10573 10610 10620 10608 10600 10601 10607 10610 10613 10616 10612 10606 10606 10605 10604 10609 10615 10616 10616 10614 10612 10609 10608 10605 10602 10600 10594 10591 10588 10585 10583 10579
10488 10495 10500 10511 10518 10521 10531 10531 10532 10536 10553 10540 10574 10559 10605 10583 10577 10577 10587 10585 10585 10590 10592 10591 10586 10582 10583 10585 10591 10596 10595 10591 10589 10590 10584 10581 10581 10578 10575 10570 10566 10563 10558 10557
10470 10472 10474 10486 10490 10488 10494 10506 10521 10521 10529 10520 10539 10537 10563 10556 10555 10559 10563 10549 10562 10567 10571 10571 10563 10556 10556 10558 10565 10567 10568 10568 10565 10566 10563 10559 10558 10556 10552 10547 10544 10541 10537 10533
10438 10444 10449 10466 10455 10459 10461 10501 10487 10499 10506 10503 10501 10523 10525 10532 10533 10543 10531 10525 10538 10540 10542 10542 10543 10540 10535 10531 10531 10536 10537 10541 10540 10539 10539 10536 10534 10532 10528 10526 10522 10517 10514 10510
10418 10424 10421 10440 10435 10429 10464 10470 10476 10471 10481 10474 10465 10479 10498 10498 10512 10516 10495 10507 10512 10513 10517 10518 10518 10515 10511 10510 10507 10505 10507 10508 10511 10510 10510 10508 10507 10505 10503 10500 10496 10492 10488 10483
10395 10391 10395 10401 10412 10417 10439 10470 10450 10440 10446 10445 10437 10448 10463 10473 10473 10487 10467 10477 10484 10487 10488 10488 10490 10490 10488 10487 10483 10481 10479 10479 10480 10481 10481 10478 10478 10477 10476 10473 10470 10467 10462 10457
10364 10367 10360 10380 10378 10385 10434 10439 10420 10403 10395 10429 10423 10423 10431 10442 10443 10453 10449 10451 10457 10460 10463 10464 10465 10466 10466 10463 10462 10460 10459 10457 10454 10455 10455 10453 10451 10450 10448 10445 10442 10439 10435 10431
10340 10338 10336 10345 10341 10351 10406 10414 10388 10363 10391 10395 10396 10390 10393 10406 10408 10415 10417 10426 10432 10439 10437 10436 10436 10437 10435 10434 10435 10435 10432 10430 10428 10426 10425 10425 10423 10422 10420 10417 10415 10412 10408 10404
10318 10315 10321 10324 10320 10326 10373 10377 10365 10351 10357 10356 10359 10367 10366 10367 10378 10379 10387 10391 10401 10405 10405 10403 10403 10403 10403 10404 10403 10403 10401 10399 10397 10395 10393 10392 10391 10390 10390 10388 10384 10380 10376 10373
10289 10295 10294 10297 10301 10309 10333 10341 10340 10332 10326 10325 10327 10334 10334 10340 10347 10349 10350 10360 10364 10367 10370 10371 10371 10371 10368 10367 10367 10366 10364 10363 10362 10363 10362 10359 10358 10357 10356 10353 10351 10348 10343 10341
10263 10270 10260 10268 10286 10289 10286 10300 10302 10296 10287 10297 10301 10303 10300 10303 10314 10319 10319 10326 10331 10332 10334 10336 10337 10338 10337 10336 10334 10332 10332 10331 10331 10329 10327 10327 10326 10325 10324 10320 10318 10313 10312 10309
10244 10238 10247 10235 10262 10251 10253 10255 10262 10257 10250 10263 10272 10265 10265 10264 10273 10278 10284 10292 10295 10296 10297 10298 10301 10298 10300 10301 10301 10299 10295 10296 10292 10292 10290 10290 10289 10290 10289 10285 10282 10282 10279 10276
10223 10214 10204 10218 10227 10212 10223 10225 10221 10221 10224 10219 10228 10235 10238 10236 10233 10244 10248 10257 10261 10262 10263 10263 10265 10264 10263 10266 10266 10265 10263 10258 10256 10256 10255 10257 10255 10252 10251 10251 10253 10250 10246 10243